Flag for Germany Weather past 2 weeks in Neubrandenburg, Mecklenburg-Western Pomerania, Germany

Now
63 °F

Passing clouds.


Feels Like: 63 °F
Forecast: 49 / 74 °F
Wind: 3 mph from West

Location: Greifswald

Current Time: Aug 27, 2014 at 9:00:09 PM

Latest Report: Aug 27, 2014 at 8:00 PM


Visibility: 34 mi

Pressure: 29.97 "Hg

Humidity: 61%

Dew point: 49 °F

Location of NeubrandenburgLocation

Historic Weather in Neubrandenburg — Graph

°F

Neubrandenburg temperature yesterday

Maximum temperature yesterday: 63 °F (at 2:00 PM)
Minimum temperature yesterday: 44 °F (at 6:00 AM)
Average temperature yesterday: 54 °F

Past Weeks' High & Low Weather Summary

 TemperatureHumidityPressure
High75 °F (Aug 13, 5:00 PM)99% (Aug 27, 7:00 AM)29.97 "Hg (Aug 27, 7:00 AM)
Low44 °F (Aug 26, 6:00 AM)44% (Aug 13, 6:00 PM)29.47 "Hg (Aug 18, 3:00 PM)
Average59 °F74%29.81 "Hg
* Reported Aug 12 8:00 PM — Aug 27 8:00 PM, Neubrandenburg, Weather by CustomWeather, © 2014

Note: Actual official high and low records may vary slightly from our data, if they occured in-between our weather recording intervals... More about our weather records

Advertising

Neubrandenburg weather history for previous 24 hours

 ConditionsComfort  
Time TempWeatherWind HumidityBarometerVisibility
8:00 PM
Aug 27
63 °FPassing clouds.3 mph61%29.97 "Hg34 mi
7:00 PM66 °FPassing clouds.6 mph53%29.97 "Hg28 mi
6:00 PM67 °FPartly sunny.7 mph47%29.96 "Hg31 mi
5:00 PM67 °FScattered clouds.7 mph45%29.96 "Hg22 mi
4:00 PM67 °FScattered clouds.5 mph46%29.95 "Hg37 mi
3:00 PM67 °FPartly sunny.5 mph52%29.95 "Hg40 mi
2:00 PM68 °FPartly sunny.6 mph52%29.95 "Hg19 mi
1:00 PM66 °FPartly sunny.6 mph56%29.95 "Hg25 mi
12:00 PM65 °FPartly sunny.5 mph62%29.94 "Hg22 mi
11:00 AM64 °FPartly sunny.6 mph65%29.93 "Hg31 mi
9:00 AM60 °FScattered clouds.2 mph90%29.89 "Hg14 mi
8:00 AM53 °FScattered clouds.2 mph98%29.88 "Hg6 mi
7:00 AM49 °FFog.1 mph99%29.87 "Hg3 mi
6:00 AM49 °FFog.2 mph98%29.86 "Hg4 mi
5:00 AM49 °FFog.2 mph98%29.85 "Hg3 mi
4:00 AM49 °FFog.2 mph98%29.84 "Hg3 mi
3:00 AM50 °FFog.2 mph97%29.83 "Hg4 mi
2:00 AM51 °FClear.2 mph97%29.83 "Hg6 mi
1:00 AM51 °FClear.2 mph96%29.81 "Hg7 mi
12:00 AM52 °FClear.2 mph94%29.80 "Hg9 mi
10:00 PM
Aug 26
54 °FClear.1 mph91%29.80 "Hg22 mi
9:00 PM55 °FPassing clouds.1 mph86%29.79 "Hg19 mi
Weather by CustomWeather, © 2014

See weather overviewHow to use our weather pages